Year,Month,Day,Hour,Minute,Value (Times are PST for temperature in C)
2020,05,04,00,00,7.10
2020,05,04,00,01,7.10
2020,05,04,00,02,7.10
2020,05,04,00,03,7.10
2020,05,04,00,04,7.10
2020,05,04,00,05,7.10
2020,05,04,00,06,7.10
2020,05,04,00,07,7.10
2020,05,04,00,08,7.10
2020,05,04,00,09,7.10
2020,05,04,00,10,7.00
2020,05,04,00,11,7.00
2020,05,04,00,12,7.00
2020,05,04,00,13,7.00
2020,05,04,00,14,7.00
2020,05,04,00,15,7.00
2020,05,04,00,16,6.90
2020,05,04,00,17,6.90
2020,05,04,00,18,6.90
2020,05,04,00,19,6.90
2020,05,04,00,20,6.90
2020,05,04,00,21,6.90
2020,05,04,00,22,6.90
2020,05,04,00,23,6.90
2020,05,04,00,24,6.90
2020,05,04,00,25,6.90
2020,05,04,00,26,6.90
2020,05,04,00,27,6.90
2020,05,04,00,28,6.90
2020,05,04,00,29,6.90
2020,05,04,00,30,6.80
2020,05,04,00,31,6.80
2020,05,04,00,32,6.80
2020,05,04,00,33,6.80
2020,05,04,00,34,6.80
2020,05,04,00,35,6.70
2020,05,04,00,36,6.70
2020,05,04,00,37,6.70
2020,05,04,00,38,6.70
2020,05,04,00,39,6.70
2020,05,04,00,40,6.60
2020,05,04,00,41,6.60
2020,05,04,00,42,6.60
2020,05,04,00,43,6.60
2020,05,04,00,44,6.60
2020,05,04,00,45,6.50
2020,05,04,00,46,6.50
2020,05,04,00,47,6.50
2020,05,04,00,48,6.50
2020,05,04,00,49,6.40
2020,05,04,00,50,6.40
2020,05,04,00,51,6.40
2020,05,04,00,52,6.40
2020,05,04,00,53,6.40
2020,05,04,00,54,6.40
2020,05,04,00,55,6.40
2020,05,04,00,56,6.30
2020,05,04,00,57,6.30
2020,05,04,00,58,6.30
2020,05,04,00,59,6.30
2020,05,04,01,00,6.30
2020,05,04,01,01,6.30
2020,05,04,01,02,6.30
2020,05,04,01,03,6.30
2020,05,04,01,04,6.30
2020,05,04,01,05,6.30
2020,05,04,01,06,6.30
2020,05,04,01,07,6.30
2020,05,04,01,08,6.30
2020,05,04,01,09,6.30
2020,05,04,01,10,6.30
2020,05,04,01,11,6.20
2020,05,04,01,12,6.20
2020,05,04,01,13,6.20
2020,05,04,01,14,6.20
2020,05,04,01,15,6.20
2020,05,04,01,16,6.20
2020,05,04,01,17,6.10
2020,05,04,01,18,6.10
2020,05,04,01,19,6.10
2020,05,04,01,20,6.10
2020,05,04,01,21,6.10
2020,05,04,01,22,6.00
2020,05,04,01,23,6.00
2020,05,04,01,24,5.90
2020,05,04,01,25,5.90
2020,05,04,01,26,5.90
2020,05,04,01,27,5.90
2020,05,04,01,28,5.80
2020,05,04,01,29,5.80
2020,05,04,01,30,5.80
2020,05,04,01,31,5.80
2020,05,04,01,32,5.70
2020,05,04,01,33,5.70
2020,05,04,01,34,5.70
2020,05,04,01,35,5.70
2020,05,04,01,36,5.70
2020,05,04,01,37,5.70
2020,05,04,01,38,5.60
2020,05,04,01,39,5.60
2020,05,04,01,40,5.60
2020,05,04,01,41,5.60
2020,05,04,01,42,5.60
2020,05,04,01,43,5.60
2020,05,04,01,44,5.60
2020,05,04,01,45,5.60
2020,05,04,01,46,5.60
2020,05,04,01,47,5.60
2020,05,04,01,48,5.60
2020,05,04,01,49,5.60
2020,05,04,01,50,5.60
2020,05,04,01,51,5.60
2020,05,04,01,52,5.60
2020,05,04,01,53,5.50
2020,05,04,01,54,5.50
2020,05,04,01,55,5.50
2020,05,04,01,56,5.50
2020,05,04,01,57,5.40
2020,05,04,01,58,5.40
2020,05,04,01,59,5.40
2020,05,04,02,00,5.40
2020,05,04,02,01,5.40
2020,05,04,02,02,5.40
2020,05,04,02,03,5.40
2020,05,04,02,04,5.30
2020,05,04,02,05,5.30
2020,05,04,02,06,5.30
2020,05,04,02,07,5.30
2020,05,04,02,08,5.30
2020,05,04,02,09,5.30
2020,05,04,02,10,5.30
2020,05,04,02,11,5.30
2020,05,04,02,12,5.20
2020,05,04,02,13,5.20
2020,05,04,02,14,5.20
2020,05,04,02,15,5.20
2020,05,04,02,16,5.20
2020,05,04,02,17,5.20
2020,05,04,02,18,5.10
2020,05,04,02,19,5.10
2020,05,04,02,20,5.10
2020,05,04,02,21,5.10
2020,05,04,02,22,5.10
2020,05,04,02,23,5.10
2020,05,04,02,24,5.00
2020,05,04,02,25,5.00
2020,05,04,02,26,5.00
2020,05,04,02,27,5.00
2020,05,04,02,28,4.90
2020,05,04,02,29,4.90
2020,05,04,02,30,4.90
2020,05,04,02,31,4.90
2020,05,04,02,32,4.90
2020,05,04,02,33,4.80
2020,05,04,02,34,4.80
2020,05,04,02,35,4.80
2020,05,04,02,36,4.80
2020,05,04,02,37,4.70
2020,05,04,02,38,4.70
2020,05,04,02,39,4.70
2020,05,04,02,40,4.70
2020,05,04,02,41,4.70
2020,05,04,02,42,4.70
2020,05,04,02,43,4.60
2020,05,04,02,44,4.60
2020,05,04,02,45,4.60
2020,05,04,02,46,4.60
2020,05,04,02,47,4.50
2020,05,04,02,48,4.50
2020,05,04,02,49,4.50
2020,05,04,02,50,4.50
2020,05,04,02,51,4.40
2020,05,04,02,52,4.40
2020,05,04,02,53,4.40
2020,05,04,02,54,4.40
2020,05,04,02,55,4.40
2020,05,04,02,56,4.40
2020,05,04,02,57,4.40
2020,05,04,02,58,4.40
2020,05,04,02,59,4.30
2020,05,04,03,00,4.30
2020,05,04,03,01,4.30
2020,05,04,03,02,4.30
2020,05,04,03,03,4.30
2020,05,04,03,04,4.30
2020,05,04,03,05,4.30
2020,05,04,03,06,4.30
2020,05,04,03,07,4.20
2020,05,04,03,08,4.20
2020,05,04,03,09,4.20
2020,05,04,03,10,4.20
2020,05,04,03,11,4.10
2020,05,04,03,12,4.10
2020,05,04,03,13,4.10
2020,05,04,03,14,4.10
2020,05,04,03,15,4.10
2020,05,04,03,16,4.10
2020,05,04,03,17,4.10
2020,05,04,03,18,4.10
2020,05,04,03,19,4.10
2020,05,04,03,20,4.00
2020,05,04,03,21,4.00
2020,05,04,03,22,4.00
2020,05,04,03,23,4.00
2020,05,04,03,24,3.90
2020,05,04,03,25,3.90
2020,05,04,03,26,3.90
2020,05,04,03,27,3.90
2020,05,04,03,28,3.90
2020,05,04,03,29,3.90
2020,05,04,03,30,3.90
2020,05,04,03,31,3.90
2020,05,04,03,32,3.80
2020,05,04,03,33,3.80
2020,05,04,03,34,3.80
2020,05,04,03,35,3.80
2020,05,04,03,36,3.80
2020,05,04,03,37,3.80
2020,05,04,03,38,3.80
2020,05,04,03,39,3.80
2020,05,04,03,40,3.80
2020,05,04,03,41,3.80
2020,05,04,03,42,3.80
2020,05,04,03,43,3.80
2020,05,04,03,44,3.70
2020,05,04,03,45,3.70
2020,05,04,03,46,3.70
2020,05,04,03,47,3.70
2020,05,04,03,48,3.70
2020,05,04,03,49,3.70
2020,05,04,03,50,3.70
2020,05,04,03,51,3.70
2020,05,04,03,52,3.70
2020,05,04,03,53,3.70
2020,05,04,03,54,3.70
2020,05,04,03,55,3.70
2020,05,04,03,56,3.70
2020,05,04,03,57,3.70
2020,05,04,03,58,3.70
2020,05,04,03,59,3.70
2020,05,04,04,00,3.70
2020,05,04,04,01,3.70
2020,05,04,04,02,3.70
2020,05,04,04,03,3.70
2020,05,04,04,04,3.70
2020,05,04,04,05,3.60
2020,05,04,04,06,3.70
2020,05,04,04,07,3.60
2020,05,04,04,08,3.60
2020,05,04,04,09,3.60
2020,05,04,04,10,3.60
2020,05,04,04,11,3.60
2020,05,04,04,12,3.60
2020,05,04,04,13,3.50
2020,05,04,04,14,3.50
2020,05,04,04,15,3.50
2020,05,04,04,16,3.50
2020,05,04,04,17,3.50
2020,05,04,04,18,3.50
2020,05,04,04,19,3.50
2020,05,04,04,20,3.50
2020,05,04,04,21,3.50
2020,05,04,04,22,3.50
2020,05,04,04,23,3.50
2020,05,04,04,24,3.60
2020,05,04,04,25,3.60
2020,05,04,04,26,3.60
2020,05,04,04,27,3.60
2020,05,04,04,28,3.60
2020,05,04,04,29,3.70
2020,05,04,04,30,3.70
2020,05,04,04,31,3.70
2020,05,04,04,32,3.70
2020,05,04,04,33,3.70
2020,05,04,04,34,3.70
2020,05,04,04,35,3.70
2020,05,04,04,36,3.70
2020,05,04,04,37,3.70
2020,05,04,04,38,3.70
2020,05,04,04,39,3.70
2020,05,04,04,40,3.70
2020,05,04,04,41,3.70
2020,05,04,04,42,3.60
2020,05,04,04,43,3.60
2020,05,04,04,44,3.60
2020,05,04,04,45,3.60
2020,05,04,04,46,3.60
2020,05,04,04,47,3.60
2020,05,04,04,48,3.60
2020,05,04,04,49,3.60
2020,05,04,04,50,3.60
2020,05,04,04,51,3.60
2020,05,04,04,52,3.60
2020,05,04,04,53,3.60
2020,05,04,04,54,3.50
2020,05,04,04,55,3.50
2020,05,04,04,56,3.50
2020,05,04,04,57,3.40
2020,05,04,04,58,3.40
2020,05,04,04,59,3.40
2020,05,04,05,00,3.40
2020,05,04,05,01,3.30
2020,05,04,05,02,3.30
2020,05,04,05,03,3.30
2020,05,04,05,04,3.30
2020,05,04,05,05,3.30
2020,05,04,05,06,3.20
2020,05,04,05,07,3.20
2020,05,04,05,08,3.20
2020,05,04,05,09,3.20
2020,05,04,05,10,3.20
2020,05,04,05,11,3.10
2020,05,04,05,12,3.10
2020,05,04,05,13,3.10
2020,05,04,05,14,3.10
2020,05,04,05,15,3.10
2020,05,04,05,16,3.10
2020,05,04,05,17,3.10
2020,05,04,05,18,3.00
2020,05,04,05,19,3.00
2020,05,04,05,20,3.00
2020,05,04,05,21,3.00
2020,05,04,05,22,3.00
2020,05,04,05,23,3.00
2020,05,04,05,24,3.00
2020,05,04,05,25,3.00
2020,05,04,05,26,3.00
2020,05,04,05,27,3.00
2020,05,04,05,28,2.90
2020,05,04,05,29,3.00
2020,05,04,05,30,3.00
2020,05,04,05,31,3.00
2020,05,04,05,32,2.90
2020,05,04,05,33,2.90
2020,05,04,05,34,2.90
2020,05,04,05,35,2.90
2020,05,04,05,36,2.90
2020,05,04,05,37,2.90
2020,05,04,05,38,2.90
2020,05,04,05,39,2.90
2020,05,04,05,40,2.90
2020,05,04,05,41,2.90
2020,05,04,05,42,3.00
2020,05,04,05,43,3.00
2020,05,04,05,44,3.00
2020,05,04,05,45,3.00
2020,05,04,05,46,3.00
2020,05,04,05,47,3.10
2020,05,04,05,48,3.10
2020,05,04,05,49,3.10
2020,05,04,05,50,3.10
2020,05,04,05,51,3.10
2020,05,04,05,52,3.20
2020,05,04,05,53,3.20
2020,05,04,05,54,3.20
2020,05,04,05,55,3.20
2020,05,04,05,56,3.20
2020,05,04,05,57,3.30
2020,05,04,05,58,3.30
2020,05,04,05,59,3.30
2020,05,04,06,00,3.30
2020,05,04,06,01,3.40
2020,05,04,06,02,3.40
2020,05,04,06,03,3.40
2020,05,04,06,04,3.50
2020,05,04,06,05,3.50
2020,05,04,06,06,3.60
2020,05,04,06,07,3.60
2020,05,04,06,08,3.60
2020,05,04,06,09,3.60
2020,05,04,06,10,3.70
2020,05,04,06,11,3.70
2020,05,04,06,12,3.70
2020,05,04,06,13,3.70
2020,05,04,06,14,3.80
2020,05,04,06,15,3.80
2020,05,04,06,16,3.80
2020,05,04,06,17,3.80
2020,05,04,06,18,3.80
2020,05,04,06,19,3.90
2020,05,04,06,20,3.90
2020,05,04,06,21,3.90
2020,05,04,06,22,4.00
2020,05,04,06,23,4.00
2020,05,04,06,24,4.00
2020,05,04,06,25,4.10
2020,05,04,06,26,4.10
2020,05,04,06,27,4.10
2020,05,04,06,28,4.10
2020,05,04,06,29,4.10
2020,05,04,06,30,4.10
2020,05,04,06,31,4.10
2020,05,04,06,32,4.00
2020,05,04,06,33,4.00
2020,05,04,06,34,4.00
2020,05,04,06,35,4.00
2020,05,04,06,36,3.90
2020,05,04,06,37,3.90
2020,05,04,06,38,3.90
2020,05,04,06,39,3.90
2020,05,04,06,40,3.90
2020,05,04,06,41,3.90
2020,05,04,06,42,4.00
2020,05,04,06,43,4.00
2020,05,04,06,44,4.00
2020,05,04,06,45,4.10
2020,05,04,06,46,4.10
2020,05,04,06,47,4.10
2020,05,04,06,48,4.20
2020,05,04,06,49,4.20
2020,05,04,06,50,4.20
2020,05,04,06,51,4.30
2020,05,04,06,52,4.30
2020,05,04,06,53,4.30
2020,05,04,06,54,4.40
2020,05,04,06,55,4.40
2020,05,04,06,56,4.50
2020,05,04,06,57,4.50
2020,05,04,06,58,4.60
2020,05,04,06,59,4.60
2020,05,04,07,00,4.60
2020,05,04,07,01,4.70
2020,05,04,07,02,4.80
2020,05,04,07,03,4.80
2020,05,04,07,04,4.90
2020,05,04,07,05,4.90
2020,05,04,07,06,4.90
2020,05,04,07,07,5.00
2020,05,04,07,08,5.00
2020,05,04,07,09,5.10
2020,05,04,07,10,5.10
2020,05,04,07,11,5.10
2020,05,04,07,12,5.10
2020,05,04,07,13,5.20
2020,05,04,07,14,5.20
2020,05,04,07,15,5.20
2020,05,04,07,16,5.20
2020,05,04,07,17,5.20
2020,05,04,07,18,5.30
2020,05,04,07,19,5.30
2020,05,04,07,20,5.30
2020,05,04,07,21,5.30
2020,05,04,07,22,5.30
2020,05,04,07,23,5.30
2020,05,04,07,24,5.40
2020,05,04,07,25,5.40
2020,05,04,07,26,5.40
2020,05,04,07,27,5.40
2020,05,04,07,28,5.40
2020,05,04,07,29,5.50
2020,05,04,07,30,5.50
2020,05,04,07,31,5.60
2020,05,04,07,32,5.60
2020,05,04,07,33,5.60
2020,05,04,07,34,5.60
2020,05,04,07,35,5.70
2020,05,04,07,36,5.70
2020,05,04,07,37,5.70
2020,05,04,07,38,5.80
2020,05,04,07,39,5.80
2020,05,04,07,40,5.80
2020,05,04,07,41,5.80
2020,05,04,07,42,5.80
2020,05,04,07,43,5.90
2020,05,04,07,44,5.90
2020,05,04,07,45,6.00
2020,05,04,07,46,6.00
2020,05,04,07,47,6.00
2020,05,04,07,48,6.10
2020,05,04,07,49,6.20
2020,05,04,07,50,6.20
2020,05,04,07,51,6.20
2020,05,04,07,52,6.30
2020,05,04,07,53,6.30
2020,05,04,07,54,6.40
2020,05,04,07,55,6.40
2020,05,04,07,56,6.40
2020,05,04,07,57,6.50
2020,05,04,07,58,6.60
2020,05,04,07,59,6.60
2020,05,04,08,00,6.60
2020,05,04,08,01,6.70
2020,05,04,08,02,6.70
2020,05,04,08,03,6.80
2020,05,04,08,04,6.80
2020,05,04,08,05,6.90
2020,05,04,08,06,6.90
2020,05,04,08,07,7.00
2020,05,04,08,08,7.00
2020,05,04,08,09,7.10
2020,05,04,08,10,7.10
2020,05,04,08,11,7.10
2020,05,04,08,12,7.10
2020,05,04,08,13,7.10
2020,05,04,08,14,7.20
2020,05,04,08,15,7.20
2020,05,04,08,16,7.20
2020,05,04,08,17,7.30
2020,05,04,08,18,7.30
2020,05,04,08,19,7.30
2020,05,04,08,20,7.30
2020,05,04,08,21,7.40
2020,05,04,08,22,7.40
2020,05,04,08,23,7.40
2020,05,04,08,24,7.40
2020,05,04,08,25,7.40
2020,05,04,08,26,7.40
2020,05,04,08,27,7.40
2020,05,04,08,28,7.40
2020,05,04,08,29,7.40
2020,05,04,08,30,7.50
2020,05,04,08,31,7.60
2020,05,04,08,32,7.60
2020,05,04,08,33,7.60
2020,05,04,08,34,7.70
2020,05,04,08,35,7.70
2020,05,04,08,36,7.70
2020,05,04,08,37,7.80
2020,05,04,08,38,7.80
2020,05,04,08,39,7.80
2020,05,04,08,40,7.90
2020,05,04,08,41,7.90
2020,05,04,08,42,8.00
2020,05,04,08,43,8.00
2020,05,04,08,44,8.10
2020,05,04,08,45,8.10
2020,05,04,08,46,8.20
2020,05,04,08,47,8.20
2020,05,04,08,48,8.20
2020,05,04,08,49,8.20
2020,05,04,08,50,8.20
2020,05,04,08,51,8.20
2020,05,04,08,52,8.30
2020,05,04,08,53,8.30
2020,05,04,08,54,8.30
2020,05,04,08,55,8.30
2020,05,04,08,56,8.30
2020,05,04,08,57,8.30
2020,05,04,08,58,8.30
2020,05,04,08,59,8.30
2020,05,04,09,00,8.30
2020,05,04,09,01,8.30
2020,05,04,09,02,8.30
2020,05,04,09,03,8.30
2020,05,04,09,04,8.30
2020,05,04,09,05,8.30
2020,05,04,09,06,8.30
2020,05,04,09,07,8.30
2020,05,04,09,08,8.30
2020,05,04,09,09,8.30
2020,05,04,09,10,8.30
2020,05,04,09,11,8.30
2020,05,04,09,12,8.30
2020,05,04,09,13,8.40
2020,05,04,09,14,8.40
2020,05,04,09,15,8.40
2020,05,04,09,16,8.40
2020,05,04,09,17,8.40
2020,05,04,09,18,8.40
2020,05,04,09,19,8.50
2020,05,04,09,20,8.50
2020,05,04,09,21,8.50
2020,05,04,09,22,8.60
2020,05,04,09,23,8.60
2020,05,04,09,24,8.60
2020,05,04,09,25,8.60
2020,05,04,09,26,8.60
2020,05,04,09,27,8.60
2020,05,04,09,28,8.60
2020,05,04,09,29,8.60
2020,05,04,09,30,8.70
2020,05,04,09,31,8.70
2020,05,04,09,32,8.70
2020,05,04,09,33,8.70
2020,05,04,09,34,8.70
2020,05,04,09,35,8.80
2020,05,04,09,36,8.80
2020,05,04,09,37,8.80
2020,05,04,09,38,8.90
2020,05,04,09,39,8.90
2020,05,04,09,40,9.00
2020,05,04,09,41,9.00
2020,05,04,09,42,9.10
2020,05,04,09,43,9.10
2020,05,04,09,44,9.20
2020,05,04,09,45,9.20
2020,05,04,09,46,9.20
2020,05,04,09,47,9.30
2020,05,04,09,48,9.30
2020,05,04,09,49,9.30
2020,05,04,09,50,9.30
2020,05,04,09,51,9.40
2020,05,04,09,52,9.40
2020,05,04,09,53,9.40
2020,05,04,09,54,9.40
2020,05,04,09,55,9.50
2020,05,04,09,56,9.60
2020,05,04,09,57,9.70
2020,05,04,09,58,9.70
2020,05,04,09,59,9.80
2020,05,04,10,00,9.80
2020,05,04,10,01,9.90
2020,05,04,10,02,9.90
2020,05,04,10,03,9.90
2020,05,04,10,04,9.90
2020,05,04,10,05,9.90
2020,05,04,10,06,9.90
2020,05,04,10,07,9.90
2020,05,04,10,08,9.90
2020,05,04,10,09,9.90
2020,05,04,10,10,9.90
2020,05,04,10,11,9.90
2020,05,04,10,12,9.90
2020,05,04,10,13,10.00
2020,05,04,10,14,10.00
2020,05,04,10,15,10.00
2020,05,04,10,16,9.90
2020,05,04,10,17,9.90
2020,05,04,10,18,9.90
2020,05,04,10,19,9.90
2020,05,04,10,20,9.90
2020,05,04,10,21,9.90
2020,05,04,10,22,9.90
2020,05,04,10,23,9.90
2020,05,04,10,24,9.90
2020,05,04,10,25,9.90
2020,05,04,10,26,9.90
2020,05,04,10,27,9.80
2020,05,04,10,28,9.80
2020,05,04,10,29,9.80
2020,05,04,10,30,9.80
2020,05,04,10,31,9.80
2020,05,04,10,32,9.80
2020,05,04,10,33,9.80
2020,05,04,10,34,9.80
2020,05,04,10,35,9.80
2020,05,04,10,36,9.80
2020,05,04,10,37,9.80
2020,05,04,10,38,9.80
2020,05,04,10,39,9.90
2020,05,04,10,40,9.90
2020,05,04,10,41,9.90
2020,05,04,10,42,9.90
2020,05,04,10,43,9.90
2020,05,04,10,44,9.90
2020,05,04,10,45,9.90
2020,05,04,10,46,9.90
2020,05,04,10,47,10.00
2020,05,04,10,48,9.90
2020,05,04,10,49,10.00
2020,05,04,10,50,10.00
2020,05,04,10,51,10.00
2020,05,04,10,52,10.00
2020,05,04,10,53,10.00
2020,05,04,10,54,10.00
2020,05,04,10,55,10.00
2020,05,04,10,56,10.00
2020,05,04,10,57,9.90
2020,05,04,10,58,9.90
2020,05,04,10,59,9.90
2020,05,04,11,00,9.90
2020,05,04,11,01,9.90
2020,05,04,11,02,9.90
2020,05,04,11,03,9.90
2020,05,04,11,04,10.00
2020,05,04,11,05,10.00
2020,05,04,11,06,10.00
2020,05,04,11,07,10.00
2020,05,04,11,08,10.00
2020,05,04,11,09,10.00
2020,05,04,11,10,10.00
2020,05,04,11,11,10.00
2020,05,04,11,12,10.00
2020,05,04,11,13,10.00
2020,05,04,11,14,10.00
2020,05,04,11,15,10.00
2020,05,04,11,16,10.10
2020,05,04,11,17,10.10
2020,05,04,11,18,10.10
2020,05,04,11,19,10.10
2020,05,04,11,20,10.10
2020,05,04,11,21,10.10
2020,05,04,11,22,10.10
2020,05,04,11,23,10.10
2020,05,04,11,24,10.10
2020,05,04,11,25,10.10
2020,05,04,11,26,10.10
2020,05,04,11,27,10.10
2020,05,04,11,28,10.10
2020,05,04,11,29,10.10
2020,05,04,11,30,10.10
2020,05,04,11,31,10.10
2020,05,04,11,32,10.10
2020,05,04,11,33,10.10
2020,05,04,11,34,10.10
2020,05,04,11,35,10.10
2020,05,04,11,36,10.10
2020,05,04,11,37,10.10
2020,05,04,11,38,10.10
2020,05,04,11,39,10.10
2020,05,04,11,40,10.10
2020,05,04,11,41,10.10
2020,05,04,11,42,10.20
2020,05,04,11,43,10.20
2020,05,04,11,44,10.20
2020,05,04,11,45,10.30
2020,05,04,11,46,10.30
2020,05,04,11,47,10.30
2020,05,04,11,48,10.30
2020,05,04,11,49,10.30
2020,05,04,11,50,10.40
2020,05,04,11,51,10.40
2020,05,04,11,52,10.40
2020,05,04,11,53,10.50
2020,05,04,11,54,10.60
2020,05,04,11,55,10.60
2020,05,04,11,56,10.70
2020,05,04,11,57,10.80
2020,05,04,11,58,10.80
2020,05,04,11,59,10.90
2020,05,04,12,00,10.90
2020,05,04,12,01,10.90
2020,05,04,12,02,11.00
2020,05,04,12,03,11.10
2020,05,04,12,04,11.10
2020,05,04,12,05,11.10
2020,05,04,12,06,11.10
2020,05,04,12,07,11.20
2020,05,04,12,08,11.20
2020,05,04,12,09,11.10
2020,05,04,12,10,11.10
2020,05,04,12,11,11.10
2020,05,04,12,12,11.10
2020,05,04,12,13,11.10
2020,05,04,12,14,11.10
2020,05,04,12,15,11.10
2020,05,04,12,16,11.00
2020,05,04,12,17,11.00
2020,05,04,12,18,11.00
2020,05,04,12,19,11.00
2020,05,04,12,20,11.00
2020,05,04,12,21,11.10
2020,05,04,12,22,11.00
2020,05,04,12,23,11.00
2020,05,04,12,24,11.00
2020,05,04,12,25,11.00
2020,05,04,12,26,11.00
2020,05,04,12,27,10.90
2020,05,04,12,28,10.90
2020,05,04,12,29,11.00
2020,05,04,12,30,11.00
2020,05,04,12,31,11.10
2020,05,04,12,32,11.10
2020,05,04,12,33,11.20
2020,05,04,12,34,11.10
2020,05,04,12,35,11.10
2020,05,04,12,36,11.10
2020,05,04,12,37,11.10
2020,05,04,12,38,11.20
2020,05,04,12,39,11.20
2020,05,04,12,40,11.20
2020,05,04,12,41,11.20
2020,05,04,12,42,11.20
2020,05,04,12,43,11.30
2020,05,04,12,44,11.30
2020,05,04,12,45,11.30
2020,05,04,12,46,11.30
2020,05,04,12,47,11.30
2020,05,04,12,48,11.30
2020,05,04,12,49,11.30
2020,05,04,12,50,11.40
2020,05,04,12,51,11.40
2020,05,04,12,52,11.40
2020,05,04,12,53,11.30
2020,05,04,12,54,11.30
2020,05,04,12,55,11.30
2020,05,04,12,56,11.20
2020,05,04,12,57,11.20
2020,05,04,12,58,11.20
2020,05,04,12,59,11.10
2020,05,04,13,00,11.10
2020,05,04,13,01,11.10
2020,05,04,13,02,11.10
2020,05,04,13,03,11.00
2020,05,04,13,04,11.00
2020,05,04,13,05,10.90
2020,05,04,13,06,10.90
2020,05,04,13,07,10.90
2020,05,04,13,08,10.90
2020,05,04,13,09,10.90
2020,05,04,13,10,10.90
2020,05,04,13,11,10.80
2020,05,04,13,12,10.80
2020,05,04,13,13,10.80
2020,05,04,13,14,10.80
2020,05,04,13,15,10.80
2020,05,04,13,16,10.80
2020,05,04,13,17,10.80
2020,05,04,13,18,10.80
2020,05,04,13,19,10.80
2020,05,04,13,20,10.80
2020,05,04,13,21,10.80
2020,05,04,13,22,10.80
2020,05,04,13,23,10.80
2020,05,04,13,24,10.90
2020,05,04,13,25,10.90
2020,05,04,13,26,10.90
2020,05,04,13,27,10.90
2020,05,04,13,28,10.80
2020,05,04,13,29,10.80
2020,05,04,13,30,10.80
2020,05,04,13,31,10.80
2020,05,04,13,32,10.80
2020,05,04,13,33,10.70
2020,05,04,13,34,10.70
2020,05,04,13,35,10.70
2020,05,04,13,36,10.70
2020,05,04,13,37,10.70
2020,05,04,13,38,10.70
2020,05,04,13,39,10.70
2020,05,04,13,40,10.70
2020,05,04,13,41,10.70
2020,05,04,13,42,10.70
2020,05,04,13,43,10.70
2020,05,04,13,44,10.80
2020,05,04,13,45,10.80
2020,05,04,13,46,10.80
2020,05,04,13,47,10.80
2020,05,04,13,48,10.80
2020,05,04,13,49,10.80
2020,05,04,13,50,10.80
2020,05,04,13,51,10.80
2020,05,04,13,52,10.70
2020,05,04,13,53,10.70
2020,05,04,13,54,10.70
2020,05,04,13,55,10.70
2020,05,04,13,56,10.70
2020,05,04,13,57,10.60
2020,05,04,13,58,10.60
2020,05,04,13,59,10.60
2020,05,04,14,00,10.60
2020,05,04,14,01,10.60
2020,05,04,14,02,10.60
2020,05,04,14,03,10.70
2020,05,04,14,04,10.60
2020,05,04,14,05,10.60
2020,05,04,14,06,10.60
2020,05,04,14,07,10.60
2020,05,04,14,08,10.60
2020,05,04,14,09,10.50
2020,05,04,14,10,10.50
2020,05,04,14,11,10.50
2020,05,04,14,12,10.50
2020,05,04,14,13,10.60
2020,05,04,14,14,10.60
2020,05,04,14,15,10.60
2020,05,04,14,16,10.60
2020,05,04,14,17,10.60
2020,05,04,14,18,10.60
2020,05,04,14,19,10.60
2020,05,04,14,20,10.60
2020,05,04,14,21,10.60
2020,05,04,14,22,10.60
2020,05,04,14,23,10.60
2020,05,04,14,24,10.60
2020,05,04,14,25,10.60
2020,05,04,14,26,10.60
2020,05,04,14,27,10.60
2020,05,04,14,28,10.60
2020,05,04,14,29,10.60
2020,05,04,14,30,10.60
2020,05,04,14,31,10.60
2020,05,04,14,32,10.60
2020,05,04,14,33,10.60
2020,05,04,14,34,10.70
2020,05,04,14,35,10.70
2020,05,04,14,36,10.70
2020,05,04,14,37,10.70
2020,05,04,14,38,10.70
2020,05,04,14,39,10.80
2020,05,04,14,40,10.80
2020,05,04,14,41,10.80
2020,05,04,14,42,10.90
2020,05,04,14,43,10.90
2020,05,04,14,44,11.00
2020,05,04,14,45,11.00
2020,05,04,14,46,11.10
2020,05,04,14,47,11.20
2020,05,04,14,48,11.30
2020,05,04,14,49,11.30
2020,05,04,14,50,11.30
2020,05,04,14,51,11.30
2020,05,04,14,52,11.30
2020,05,04,14,53,11.30
2020,05,04,14,54,11.40
2020,05,04,14,55,11.50
2020,05,04,14,56,11.60
2020,05,04,14,57,11.70
2020,05,04,14,58,11.80
2020,05,04,14,59,11.80
2020,05,04,15,00,11.90
2020,05,04,15,01,11.90
2020,05,04,15,02,11.90
2020,05,04,15,03,11.90
2020,05,04,15,04,11.90
2020,05,04,15,05,11.90
2020,05,04,15,06,12.00
2020,05,04,15,07,12.00
2020,05,04,15,08,12.10
2020,05,04,15,09,12.10
2020,05,04,15,10,12.10
2020,05,04,15,11,12.10
2020,05,04,15,12,12.10
2020,05,04,15,13,12.10
2020,05,04,15,14,12.00
2020,05,04,15,15,12.10
2020,05,04,15,16,12.10
2020,05,04,15,17,12.00
2020,05,04,15,18,12.00
2020,05,04,15,19,12.00
2020,05,04,15,20,12.10
2020,05,04,15,21,12.00
2020,05,04,15,22,12.10
2020,05,04,15,23,12.00
2020,05,04,15,24,12.10
2020,05,04,15,25,12.10
2020,05,04,15,26,12.10
2020,05,04,15,27,12.10
2020,05,04,15,28,12.10
2020,05,04,15,29,12.10
2020,05,04,15,30,12.00
2020,05,04,15,31,12.10
2020,05,04,15,32,12.10
2020,05,04,15,33,12.00
2020,05,04,15,34,12.00
2020,05,04,15,35,12.00
2020,05,04,15,36,12.00
2020,05,04,15,37,12.00
2020,05,04,15,38,11.90
2020,05,04,15,39,11.90
2020,05,04,15,40,11.90
2020,05,04,15,41,11.90
2020,05,04,15,42,11.90
2020,05,04,15,43,11.80
2020,05,04,15,44,11.80
2020,05,04,15,45,11.80
2020,05,04,15,46,11.80
2020,05,04,15,47,11.70
2020,05,04,15,48,11.70
2020,05,04,15,49,11.70
2020,05,04,15,50,11.60
2020,05,04,15,51,11.60
2020,05,04,15,52,11.60
2020,05,04,15,53,11.60
2020,05,04,15,54,11.50
2020,05,04,15,55,11.50
2020,05,04,15,56,11.50
2020,05,04,15,57,11.50
2020,05,04,15,58,11.50
2020,05,04,15,59,11.40
2020,05,04,16,00,11.40
2020,05,04,16,01,11.40
2020,05,04,16,02,11.40
2020,05,04,16,03,11.40
2020,05,04,16,04,11.40
2020,05,04,16,05,11.40
2020,05,04,16,06,11.40
2020,05,04,16,07,11.40
2020,05,04,16,08,11.40
2020,05,04,16,09,11.40
2020,05,04,16,10,11.40
2020,05,04,16,11,11.40
2020,05,04,16,12,11.40
2020,05,04,16,13,11.30
2020,05,04,16,14,11.30
2020,05,04,16,15,11.30
2020,05,04,16,16,11.30
2020,05,04,16,17,11.30
2020,05,04,16,18,11.30
2020,05,04,16,19,11.30
2020,05,04,16,20,11.30
2020,05,04,16,21,11.30
2020,05,04,16,22,11.30
2020,05,04,16,23,11.30
2020,05,04,16,24,11.30
2020,05,04,16,25,11.30
2020,05,04,16,26,11.30
2020,05,04,16,27,11.30
2020,05,04,16,28,11.20
2020,05,04,16,29,11.20
2020,05,04,16,30,11.20
2020,05,04,16,31,11.30
2020,05,04,16,32,11.30
2020,05,04,16,33,11.20
2020,05,04,16,34,11.20
2020,05,04,16,35,11.20
2020,05,04,16,36,11.20
2020,05,04,16,37,11.20
2020,05,04,16,38,11.20
2020,05,04,16,39,11.30
2020,05,04,16,40,11.30
2020,05,04,16,41,11.30
2020,05,04,16,42,11.30
2020,05,04,16,43,11.30
2020,05,04,16,44,11.30
2020,05,04,16,45,11.30
2020,05,04,16,46,11.30
2020,05,04,16,47,11.30
2020,05,04,16,48,11.20
2020,05,04,16,49,11.20
2020,05,04,16,50,11.30
2020,05,04,16,51,11.30
2020,05,04,16,52,11.30
2020,05,04,16,53,11.30
2020,05,04,16,54,11.30
2020,05,04,16,55,11.30
2020,05,04,16,56,11.30
2020,05,04,16,57,11.20
2020,05,04,16,58,11.20
2020,05,04,16,59,11.20
2020,05,04,17,00,11.20
2020,05,04,17,01,11.20
2020,05,04,17,02,11.20
2020,05,04,17,03,11.20
2020,05,04,17,04,11.20
2020,05,04,17,05,11.20
2020,05,04,17,06,11.20
2020,05,04,17,07,11.20
2020,05,04,17,08,11.20
2020,05,04,17,09,11.20
2020,05,04,17,10,11.20
2020,05,04,17,11,11.20
2020,05,04,17,12,11.20
2020,05,04,17,13,11.20
2020,05,04,17,14,11.20
2020,05,04,17,15,11.20
2020,05,04,17,16,11.20
2020,05,04,17,17,11.20
2020,05,04,17,18,11.20
2020,05,04,17,19,11.20
2020,05,04,17,20,11.20
2020,05,04,17,21,11.20
2020,05,04,17,22,11.10
2020,05,04,17,23,11.10
2020,05,04,17,24,11.10
2020,05,04,17,25,11.10
2020,05,04,17,26,11.10
2020,05,04,17,27,11.10
2020,05,04,17,28,11.20
2020,05,04,17,29,11.20
2020,05,04,17,30,11.20
2020,05,04,17,31,11.20
2020,05,04,17,32,11.20
2020,05,04,17,33,11.20
2020,05,04,17,34,11.20
2020,05,04,17,35,11.20
2020,05,04,17,36,11.20
2020,05,04,17,37,11.20
2020,05,04,17,38,11.20
2020,05,04,17,39,11.20
2020,05,04,17,40,11.20
2020,05,04,17,41,11.20
2020,05,04,17,42,11.20
2020,05,04,17,43,11.30
2020,05,04,17,44,11.30
2020,05,04,17,45,11.30
2020,05,04,17,46,11.30
2020,05,04,17,47,11.30